Regional Weather Roundup
Issued by NWS

Home | Current Version | Previous Version | Text Only | Print | Product List | Glossary Off
Versions: 1 2 3 4 5 6 7 8 9 10 11 12 13 14 15 16 17 18 19 20 21 22 23 24 25 26 27 28 29 30 31 32 33 34 35 36 37 38 39 40 41 42 43 44 45 46 47 48 49 50

000
ASUS45 KBOU 192307
RWRCO

WEATHER ROUNDUP FOR COLORADO
NATIONAL WEATHER SERVICE DENVER/BOULDER CO
400 PM MST FRI DEC 19 2014

NOTE: "FAIR" INDICATES FEW OR NO CLOUDS BELOW 12000 FEET WITH NO
SIGNIFICANT WEATHER AND/OR OBSTRUCTIONS TO VISIBILITY.

COZ001>005-013-030-031-200000-
...NORTHWEST COLORADO...

CITY           SKY/WX    TMP DP  RH WIND       PRES   REMARKS
CRAIG          PTCLDY    23  18  81 CALM      30.19R
HAYDEN         PTCLDY    23  18  80 S6        30.18R WCI  16
MEEKER         MOCLDY    25  20  81 CALM      30.18R
MOUNT WERNER   NOT AVBL
STEAMBOAT SPGS PTCLDY    24  19  78 NW5       30.16S WCI  18
WALDEN         CLEAR     23  12  63 S9        30.10S WCI  13
$$

COZ006>008-011-200000-
...WEST CENTRAL VALLEYS...

CITY           SKY/WX    TMP DP  RH WIND       PRES   REMARKS
GRAND JUNCTION CLOUDY    38  27  64 NW3       30.20R
MONTROSE       PTCLDY    40  20  44 CALM      30.19F
EAGLE          MOCLDY    34  19  55 W9        30.18R WCI  26
RIFLE          CLOUDY    36  25  64 W6        30.20R
DELTA          PTCLDY    43  26  50 CALM      30.21S
NUCLA          PTCLDY    36  25  64 NW5       30.22S
$$

COZ017>023-064>068-200000-
...SOUTHWEST COLORADO...

CITY           SKY/WX    TMP DP  RH WIND       PRES   REMARKS
DURANGO        PTCLDY    35  23  61 W5        30.17R WCI  31
CORTEZ         CLEAR     38  27  64 W6        30.17S
PAGOSA SPRINGS CLEAR     32  18  56 S3        30.16F
TELLURIDE      CLEAR     28  13  54 CALM      30.17F
WOLF CREEK PAS CLEAR     18  12  79 MISG      30.13S
$$

COZ009-010-012-014-032>034-037-058>063-200000-
...CENTRAL COLORADO...

CITY           SKY/WX    TMP DP  RH WIND       PRES   REMARKS
ASPEN          PTCLDY    27  14  58 CALM      30.14S
BUENA VISTA    CLEAR     34   7  32 NW12      30.07S WCI  25
COPPER MTN     PTCLDY    14   9  79 SW6       30.11R WCI   5
BERTHOUD PASS  CLOUDY     7   1  78 MISG      30.04S
COTTONWOOD PAS CLEAR     32   3  29 SW8G20    30.08R WCI  25
GUNNISON       PTCLDY    30  16  55 N7        30.18S WCI  23
KREMMLING      PTCLDY    30  18  59 CALM      30.15S
LEADVILLE      PTCLDY    19   8  62 NW15      30.09S WCI   5
MONARCH PASS   CLOUDY    12   9  85 MISG      30.19R
SALIDA         CLEAR     35  13  41 SW17G31   30.15S WCI  24
SUNLIGHT       MOCLDY   N/A N/A N/A CALM      30.14F
WILKERSON PASS PTCLDY    21   3  45 W12G18    30.07R WCI   9
$$

COZ069>075-200000-
...SAN LUIS VALLEY/SANGRE DE CRISTO MOUNTAINS...

CITY           SKY/WX    TMP DP  RH WIND       PRES   REMARKS
ALAMOSA        CLEAR     32  14  47 E7        30.13R WCI  26
LA VETA PASS   CLEAR     21  10  63 S13G29    30.07R WCI   9
SAGUACHE       CLEAR     32  12  43 N16       30.14R WCI  21
$$

COZ035-036-038>040-200000-
...NORTHERN COLORADO FRONT RANGE...

CITY           SKY/WX    TMP DP  RH WIND       PRES   REMARKS
DENVER INTL AP PTCLDY    40  11  30 S8        30.00R
DMNS CITY PARK   N/A     46   8  21 S2        29.99S
AURORA         PTCLDY    41  14  33 SE6       30.01R
FRONT RANGE AP NOT AVBL
ERIE MUNI ARPT   N/A     45   8  22 W6        29.98S
BOULDER MUN AP CLEAR     46  12  25 NW6       29.98R
CENTENNIAL     PTCLDY    40  14  34 S7        30.00R
BROOMFIELD     PTCLDY    45  10  24 W13       29.99F
FORT COLLINS   CLEAR     43  12  28 SE7       30.00S
LONGMONT       CLEAR     47  11  24 CALM      30.00S
$$

COZ041-046-047-076>085-087-088-200000-
...PIKES PEAK/PALMER DIVIDE AND SOUTHERN FOOTHILLS...

CITY           SKY/WX    TMP DP  RH WIND       PRES   REMARKS
COLO. SPRINGS  PTCLDY    41  12  30 S8        30.03R
A. F. ACADEMY  CLEAR     40  11  30 S9        30.02R
ELLICOTT       NOT AVBL
FALCON         CLEAR     38  10  32 S7        30.04R
FORT CARSON    CLEAR     42  14  32 S8        30.02S
LIMON          CLEAR     40  13  33 SW6       30.02S
MONUMENT HILL  CLEAR     34  12  40 E3        30.02R
TRINIDAD       CLEAR     44  17  33 SE3       30.04R
$$

COZ042>045-048>051-090-091-200000-
...NORTHEAST COLORADO...

CITY           SKY/WX    TMP DP  RH WIND       PRES   REMARKS
GREELEY ARPT   CLEAR     45  12  26 S8        29.99R
AKRON          CLEAR     35  25  66 S8        30.02R WCI  29
BURLINGTON     CLEAR     40  28  62 SW7       30.05S
WRAY           CLEAR     40  29  66 SW7       30.03S
STERLING       CLEAR     32  28  86 S7        30.01F FOG     WCI  26
HOLYOKE        CLEAR     37  30  75 SW7       30.02S
FORT MORGAN    CLEAR     33  25  72 S3        30.02S
$$

COZ086-089-092>099-200000-
...SOUTHEAST COLORADO...

CITY           SKY/WX    TMP DP  RH WIND       PRES   REMARKS
PUEBLO         CLEAR     46  18  32 SE8       30.02S
LA JUNTA       CLEAR     43  30  60 S8        30.05S
LAMAR          CLEAR     44  30  57 W5        30.05S
SPRINGFIELD      N/A     43  25  49 SE9       30.06R
$$


USA.gov is the U.S. government's official web portal to all federal, state and local government web resources and services.